Redwood Falls, MN

5:36 PM CDT on May 25, 2017 (GMT -0500)
Redwood Falls Municipal

Weather History for KRWF - September, 2013

Change the Weather History Date:

Wednesday, September 11, 2013

  Actual Average Record
Temperature  
Mean Temperature 73 °F -  
Max Temperature 86 °F 75 °F 99 °F (1978)
Min Temperature 62 °F 52 °F 33 °F (1955)
Cooling Degree Days 8    
Growing Degree Days 23 (Base 50)    
Moisture  
Dew Point 54 °F    
Average Humidity 55    
Maximum Humidity 90    
Minimum Humidity 29    
Precipitation  
Precipitation 0.00 in - - ()
Sea Level Pressure  
Sea Level Pressure 30.04 in    
Wind  
Wind Speed 7 mph (WNW)    
Max Wind Speed 14 mph    
Max Gust Speed 22 mph    
Visibility 10 miles    
Events      
Averages and records for this station are not official NWS values.
T = Trace of Precipitation, MM = Missing Value Source: NWS Daily Summary

Daily Weather History Graph

Daily Weather History Graph

Search for Another Location

Airport or City:

Trip Planner

Search our weather history database for the weather conditions in past years. The results will help you decide how hot, cold, wet, or windy it might be!

Date:

Astronomy

Sep. 11, 2013 Rise Set
Actual Time 6:54 AM CDT 7:37 PM CDT
Civil Twilight 6:25 AM CDT 8:07 PM CDT
Nautical Twilight 5:50 AM CDT 8:42 PM CDT
Astronomical Twilight 5:14 AM CDT 9:18 PM CDT
Moon 1:39 PM CDT (9/11) 11:19 PM CDT (9/11)
Length of Visible Light 13h 41m
Length of Day
12h 43m
Waxing Crescent, 39% of the Moon is Illuminated
Sep 11
Waxing Crescent
Sep 12
First Quarter
Sep 19
Full
Sep 26
Last Quarter
Oct 4
New

Hourly Weather History & Observations

Time (CDT) Temp. Heat Index Dew Point Humidity Pressure Visibility Wind Dir Wind Speed Gust Speed Precip Events Conditions
12:53 AM 69.1 °F - 60.1 °F 73% 30.01 in 10.0 mi WSW 4.6 mph - N/A   Clear
1:53 AM 66.0 °F - 60.1 °F 81% 30.00 in 10.0 mi West 3.5 mph - N/A   Clear
2:53 AM 66.9 °F - 60.1 °F 79% 30.00 in 10.0 mi WNW 4.6 mph - N/A   Clear
3:53 AM 64.9 °F - 59.0 °F 81% 30.01 in 10.0 mi WSW 3.5 mph - N/A   Clear
4:53 AM 62.1 °F - 59.0 °F 90% 30.01 in 10.0 mi WSW 3.5 mph - N/A   Clear
5:53 AM 63.0 °F - 59.0 °F 87% 30.02 in 10.0 mi West 3.5 mph - N/A   Clear
6:53 AM 64.9 °F - 57.0 °F 75% 30.03 in 10.0 mi West 6.9 mph - N/A   Clear
7:53 AM 66.0 °F - 57.0 °F 73% 30.04 in 10.0 mi West 10.4 mph - N/A   Clear
8:53 AM 70.0 °F - 57.9 °F 65% 30.04 in 10.0 mi WNW 10.4 mph - N/A   Clear
9:53 AM 73.0 °F - 57.9 °F 59% 30.05 in 10.0 mi WNW 11.5 mph - N/A   Clear
10:53 AM 78.1 °F - 59.0 °F 52% 30.06 in 10.0 mi WNW 10.4 mph - N/A   Clear
11:53 AM 82.0 °F 81.6 °F 55.9 °F 41% 30.06 in 10.0 mi NW 12.7 mph 18.4 mph N/A   Clear
12:53 PM 82.9 °F - 52.0 °F 34% 30.06 in 10.0 mi NW 12.7 mph 21.9 mph N/A   Clear
1:53 PM 84.0 °F - 48.9 °F 29% 30.06 in 10.0 mi NNW 10.4 mph - N/A   Clear
2:53 PM 84.9 °F - 50.0 °F 30% 30.05 in 10.0 mi WNW 13.8 mph 19.6 mph N/A   Clear
3:53 PM 84.9 °F - 50.0 °F 30% 30.04 in 10.0 mi NNW 6.9 mph - N/A   Clear
4:53 PM 84.9 °F - 50.0 °F 30% 30.03 in 10.0 mi WNW 6.9 mph - N/A   Clear
5:53 PM 84.0 °F - 51.1 °F 32% 30.03 in 10.0 mi NW 6.9 mph - N/A   Clear
6:53 PM 82.0 °F - 52.0 °F 35% 30.03 in 10.0 mi NW 4.6 mph - N/A   Clear
7:53 PM 75.9 °F - 52.0 °F 43% 30.04 in 10.0 mi NW 3.5 mph - N/A   Clear
8:53 PM 75.0 °F - 51.1 °F 43% 30.07 in 10.0 mi NW 10.4 mph - N/A   Clear
9:53 PM 71.1 °F - 48.9 °F 45% 30.09 in 10.0 mi NNW 8.1 mph - N/A   Mostly Cloudy
10:53 PM 66.9 °F - 48.9 °F 52% 30.11 in 10.0 mi NW 8.1 mph - N/A   Clear
11:53 PM 64.9 °F - 48.0 °F 54% 30.11 in 10.0 mi NNW 6.9 mph - N/A   Clear